Weather in Sosnovy

Russia / Republic of Karelia     66°00′02″N   32°19′15″E
temp.,
°C
wind,
m/s
gust,
m/s
humid.,
%
clouds,
%
prec.,
mm/h
press.,
hPa
HPBL,
m
14 august, sun
sun1400:00+11sw246910 0.0 101972
03:00+12sw3880100 0.1 1019338
06:00+12wsw310949 0.0 1018398
09:00+16w36684 0.0 1018558
12:00+19w355315 0.0 10171357
15:00+21w4641100 0.0 10172185
18:00+21nw354329 0.0 10181776
21:00+16ene256680 0.0 1019125
15 august, mon
mon1500:00+12e118283 0.0 102013
03:00+10ene118817 0.0 102111
06:00+11e128579 0.0 102148
09:00+16ese226499 0.0 1021410
12:00+20s2344100 0.0 1021865
15:00+22ssw3548100 0.2 1020827
18:00+22ssw1363100 0.3 1019311
21:00+18sse1183100 1.6 101921
16 august, tue
tue1600:00+16s2289100 1.0 101915
03:00+15sw229099 1.0 101944
06:00+15sw23885 0.0 101961
09:00+19sw24695 0.0 1019227
12:00+24ssw344375 0.0 1018715
15:00+26ssw353713 0.0 10181287
18:00+26s24475 0.0 1017496
21:00+20s22678 0.0 101720
17 august, wed
wed1700:00+19ssw25755 0.0 101784
03:00+17ssw36845 0.0 1017113
06:00+17ssw28845 0.0 1016171
09:00+22ssw47623 0.0 1016402
12:00+26ssw474935 0.0 1016896
15:00+27ssw474054 0.0 10151938
18:00+27s374332 0.0 10141054
21:00+22sse3759100 0.0 1013152
18 august, thu
thu1800:00+21s311705 0.0 1013377
03:00+18s4118784 0.1 1013344
06:00+18ssw31094100 0.3 1013452
09:00+18ssw489691 1.9 1014403
12:00+19sw3591100 1.1 1015441
15:00+20sw3585100 1.3 1016442
18:00+19ssw2587100 0.2 1015285
21:00+16sw1298100 2.6 101549